Home   Weather   Shreveport   Past weeks

Flag for USA Past Weather in Shreveport, Louisiana, USA — Yesterday and Last 2 Weeks

Now
84 °F

Passing clouds.


Feels Like: 92 °F
Forecast: 80 / 95 °F
Wind: 6 mph from Southwest

Location: Shreveport Regional Airport

Current Time: Jul 27, 2017 at 11:53:44 pm

Latest Report: Jul 27, 2017 at 10:56 pm


Visibility: 10 mi

Pressure: 29.92 "Hg

Humidity: 74%

Dew Point: 75 °F

Location of ShreveportLocation

Past Weather in Shreveport — Graph

°F

Shreveport Temperature Yesterday

Maximum temperature yesterday: 96 °F (at 3:56 pm)
Minimum temperature yesterday: 74 °F (at 6:33 am)
Average temperature yesterday: 84 °F

High & Low Weather Summary for the Past Weeks

 TemperatureHumidityPressure
High97 °F (Jul 27, 1:56 pm)100% (Jul 13, 2:56 am)30.14 "Hg (Jul 13, 2:56 am)
Low72 °F (Jul 15, 3:56 am)20% (Jul 14, 6:56 pm)29.83 "Hg (Jul 23, 3:56 pm)
Average84 °F77%30.00 "Hg
* Reported Jul 12 9:56 pm — Jul 27 9:56 pm, Shreveport. Weather by CustomWeather, © 2017

Note: Actual official high and low records may vary slightly from our data, if they occured in-between our weather recording intervals... More about our weather records

Advertising

Shreveport Weather History for the Previous 24 Hours

Scroll right to see more
 ConditionsComfort  
Time TempWeatherWind HumidityBarometerVisibility
9:56 pm
Thu, Jul 27
84 °FHigh level clouds.8 mph77%29.91 "Hg10 mi
8:56 pm87 °FPassing clouds.6 mph67%29.90 "Hg10 mi
7:56 pm90 °FPartly sunny.6 mph57%29.90 "Hg10 mi
6:56 pm93 °FPartly sunny.9 mph52%29.90 "Hg10 mi
5:56 pm93 °FPartly sunny.9 mph54%29.91 "Hg10 mi
4:56 pm95 °FPartly sunny.9 mph51%29.92 "Hg10 mi
3:56 pm96 °FPartly sunny.8 mph46%29.94 "Hg10 mi
2:56 pm97 °FPartly sunny.No wind45%29.97 "Hg10 mi
1:56 pm97 °FBroken clouds.8 mph46%29.99 "Hg10 mi
12:56 pm94 °FPartly sunny.5 mph49%30.01 "Hg10 mi
11:56 am92 °FScattered clouds.6 mph54%30.02 "Hg10 mi
10:56 am90 °FScattered clouds.3 mph57%30.03 "Hg10 mi
9:56 am88 °FScattered clouds.9 mph61%30.04 "Hg10 mi
8:56 am84 °FScattered clouds.5 mph72%30.03 "Hg10 mi
7:56 am79 °FScattered clouds.8 mph88%30.02 "Hg10 mi
6:56 am77 °FScattered clouds.3 mph94%30.02 "Hg10 mi
5:56 am77 °FClear.7 mph94%30.00 "Hg10 mi
4:56 am78 °FPassing clouds.6 mph90%30.00 "Hg10 mi
3:56 am78 °FPassing clouds.8 mph90%30.00 "Hg10 mi
2:56 am80 °FPassing clouds.7 mph85%30.01 "Hg10 mi
1:56 am80 °FPassing clouds.7 mph87%30.01 "Hg10 mi
12:56 am82 °FPassing clouds.7 mph82%30.02 "Hg10 mi
11:56 pm
Wed, Jul 26
83 °FPassing clouds.8 mph79%30.02 "Hg10 mi
Weather by CustomWeather, © 2017

See weather overviewHow to use our weather pages